Location: Gleizolles
(44.4833°N, 6.7667°E)
Time: 20:40:41
(UTC+00:00)

A-11 Canister half - Pass Details

Date: 27 June 2024
Orbit: 1524 x 1684 km, 47.3° (Epoch: 18 July)

Event Time Altitude Azimuth Distance (km) Brightness Sun altitude
Rises 11:48:25 0° 245° (WSW) 4,769 11.7 68.7°
Reaches altitude 10° 11:51:31 10° 245° (WSW) 3,765 11.4 68.6°
Maximum altitude 12:01:02 86° 158° (SSE) 1,549 10.9 68.2°
Drops below altitude 10° 12:10:23 10° 71° (ENE) 3,694 11.0 67.7°
Sets 12:13:24 0° 71° (ENE) 4,675 11.4 67.5°
